| time (UTC) | temp F | wind direction | speed MPH | gust MPH | rain 1hr in | rain 24hr in | rain mn in | humidity % | barometer mb |
| 20260504081509 | 79 | 221 | 13.0 | 21.0 | 0.00 | 0.00 | 0.00 | 25 | 946.2 |
| 20260504044543 | 85 | 153 | 10.0 | 24.0 | 0.00 | 0.00 | 0.00 | 19 | 944.6 |
| 20260504043048 | 86 | 209 | 10.0 | 20.0 | 0.00 | 0.00 | 0.00 | 19 | 944.5 |
| 20260504041545 | 86 | 195 | 14.0 | 23.0 | 0.00 | 0.00 | 0.00 | 19 | 944.4 |
| 20260504040045 | 86 | 164 | 11.0 | 21.0 | 0.00 | 0.00 | 0.00 | 19 | 944.3 |
| 20260504034550 | 87 | 181 | 9.0 | 19.0 | 0.00 | 0.00 | 0.00 | 19 | 944.1 |
| 20260504033040 | 87 | 171 | 12.0 | 26.0 | 0.00 | 0.00 | 0.00 | 19 | 943.9 |
| 20260504031543 | 87 | 146 | 13.0 | 22.0 | 0.00 | 0.00 | 0.00 | 20 | 943.5 |
| 20260504030039 | 88 | 174 | 10.0 | 19.0 | 0.00 | 0.00 | 0.00 | 20 | 943.3 |
| 20260504024546 | 88 | 198 | 8.0 | 19.0 | 0.00 | 0.00 | 0.00 | 19 | 943.3 |
| 20260504023038 | 88 | 188 | 9.0 | 21.0 | 0.00 | 0.00 | 0.00 | 18 | 943.2 |
| 20260504021540 | 89 | 179 | 11.0 | 22.0 | 0.00 | 0.00 | 0.00 | 17 | 943.1 |
| 20260504020041 | 90 | 153 | 13.0 | 25.0 | 0.00 | 0.00 | 0.00 | 16 | 943.1 |
| 20260504014538 | 90 | 155 | 13.0 | 23.0 | 0.00 | 0.00 | 0.00 | 16 | 943.1 |
| 20260504013046 | 91 | 163 | 13.0 | 22.0 | 0.00 | 0.00 | 0.00 | 15 | 943.3 |
| 20260504011534 | 91 | 162 | 14.0 | 22.0 | 0.00 | 0.00 | 0.00 | 14 | 943.2 |
| 20260504010037 | 91 | 180 | 11.0 | 22.0 | 0.00 | 0.00 | 0.00 | 14 | 943.3 |
| 20260504004532 | 92 | 10.0 | 27.0 | 0.00 | 0.00 | 0.00 | 14 | 943.5 | |
| 20260504003032 | 92 | 221 | 14.0 | 28.0 | 0.00 | 0.00 | 0.00 | 13 | 943.4 |
| 20260504001536 | 93 | 172 | 16.0 | 26.0 | 0.00 | 0.00 | 0.00 | 13 | 943.6 |
| 20260504000030 | 93 | 229 | 15.0 | 25.0 | 0.00 | 0.00 | 0.00 | 12 | 943.6 |
| 20260503234529 | 93 | 169 | 15.0 | 24.0 | 0.00 | 0.00 | 0.00 | 12 | 943.3 |
| 20260503233028 | 93 | 214 | 11.0 | 20.0 | 0.00 | 0.00 | 0.00 | 12 | 943.7 |
| 20260503231528 | 93 | 207 | 15.0 | 26.0 | 0.00 | 0.00 | 0.00 | 12 | 943.7 |
| 20260503230037 | 93 | 144 | 18.0 | 25.0 | 0.00 | 0.00 | 0.00 | 12 | 943.7 |
| 20260503224524 | 93 | 173 | 15.0 | 24.0 | 0.00 | 0.00 | 0.00 | 11 | 943.9 |
| 20260503223021 | 93 | 14.0 | 30.0 | 0.00 | 0.00 | 0.00 | 11 | 944.0 | |
| 20260503221523 | 93 | 205 | 11.0 | 21.0 | 0.00 | 0.00 | 0.00 | 12 | 944.2 |
| 20260503220018 | 93 | 202 | 11.0 | 27.0 | 0.00 | 0.00 | 0.00 | 12 | 944.4 |
| 20260503214534 | 93 | 184 | 16.0 | 33.0 | 0.00 | 0.00 | 0.00 | 12 | 944.7 |
| 20260503213016 | 94 | 167 | 14.0 | 25.0 | 0.00 | 0.00 | 0.00 | 12 | 944.8 |
| 20260503211514 | 93 | 195 | 15.0 | 26.0 | 0.00 | 0.00 | 0.00 | 13 | 945.0 |
| 20260503210013 | 94 | 238 | 15.0 | 30.0 | 0.00 | 0.00 | 0.00 | 14 | 945.1 |
| 20260503204512 | 93 | 191 | 18.0 | 31.0 | 0.00 | 0.00 | 0.00 | 15 | 945.2 |
| 20260503203014 | 93 | 191 | 17.0 | 28.0 | 0.00 | 0.00 | 0.00 | 16 | 945.3 |
| 20260503201510 | 92 | 203 | 15.0 | 31.0 | 0.00 | 0.00 | 0.00 | 16 | 945.5 |
| 20260503200008 | 92 | 14.0 | 20.0 | 0.00 | 0.00 | 0.00 | 17 | 945.9 | |
| 20260503194508 | 90 | 13.0 | 22.0 | 0.00 | 0.00 | 0.00 | 17 | 946.3 | |
| 20260503193002 | 92 | 15.0 | 23.0 | 0.00 | 0.00 | 0.00 | 17 | 946.5 | |
| 20260503191618 | 91 | 216 | 10.0 | 24.0 | 0.00 | 0.00 | 0.00 | 16 | 946.9 |
| 20260503190055 | 90 | 209 | 8.0 | 24.0 | 0.00 | 0.00 | 0.00 | 16 | 947.2 |
| 20260503184553 | 89 | 218 | 10.0 | 18.0 | 0.00 | 0.00 | 0.00 | 15 | 947.4 |
| 20260503183050 | 88 | 251 | 13.0 | 17.0 | 0.00 | 0.00 | 0.00 | 15 | 947.7 |
| 20260503181551 | 87 | 231 | 7.0 | 14.0 | 0.00 | 0.00 | 0.00 | 15 | 948.0 |
| 20260503180055 | 86 | 153 | 2.0 | 10.0 | 0.00 | 0.00 | 0.00 | 14 | 948.3 |
| 20260503174551 | 85 | 246 | 4.0 | 9.0 | 0.00 | 0.00 | 0.00 | 13 | 948.4 |
| 20260503173043 | 85 | 272 | 3.0 | 8.0 | 0.00 | 0.00 | 0.00 | 12 | 948.4 |
| 20260503171542 | 86 | 212 | 1.0 | 6.0 | 0.00 | 0.00 | 0.00 | 12 | 948.5 |